Ketchikan, AK

3:59 AM AKST on November 14, 2018 (GMT -0900)
Ketchikan International

Weather History for PAKT - March, 2018

Change the Weather History Date:

Wednesday, March 21, 2018

  Actual Average Record
Temperature  
Mean Temperature 37 °F -  
Max Temperature 46 °F 44 °F 61 °F (1998)
Min Temperature 28 °F 33 °F 19 °F (2001)
Degree Days  
Heating Degree Days 28    
Month to date heating degree days 538  
Moisture  
Dew Point 28 °F    
Average Humidity 71    
Maximum Humidity 92    
Minimum Humidity 49    
Precipitation  
Precipitation 0.01 in - - ()
Month to date precipitation 4.10  
Year to date precipitation 24.53  
Sea Level Pressure  
Sea Level Pressure 29.70 in    
Wind  
Wind Speed 7 mph (NW)    
Max Wind Speed 13 mph    
Max Gust Speed 17 mph    
Visibility 10 miles    
Events Rain    
Averages and records for this station are not official NWS values.
T = Trace of Precipitation, MM = Missing Value Source: NWS Daily Summary

Daily Weather History Graph

Daily Weather History Graph

Search for Another Location

Airport or City:

Astronomy

Mar. 21, 2018 Rise Set
Actual Time 6:45 AM AKDT 7:02 PM AKDT
Civil Twilight 6:09 AM AKDT 7:39 PM AKDT
Nautical Twilight 5:25 AM AKDT 8:23 PM AKDT
Astronomical Twilight 4:39 AM AKDT 9:09 PM AKDT
Moon 8:56 AM AKDT (3/21) No Moon Set
Length of Visible Light 13h 30m
Length of Day
12h 17m
Waxing Crescent, 20% of the Moon is Illuminated
Mar 21
Waxing Crescent
Mar 24
First Quarter
Mar 31
Full
Apr 7
Last Quarter
Apr 15
New

Hourly Weather History & Observations

Time (AKDT) Temp. Windchill Dew Point Humidity Pressure Visibility Wind Dir Wind Speed Gust Speed Precip Events Conditions
12:53 AM 30.0 °F - 28.0 °F 92% 29.89 in 10.0 mi Calm Calm - N/A   Clear
1:53 AM 28.9 °F - 27.0 °F 92% 29.88 in 10.0 mi Calm Calm - N/A   Clear
2:53 AM 28.9 °F 25.2 °F 27.0 °F 92% 29.86 in 10.0 mi WSW 3.5 mph - N/A   Clear
3:53 AM 30.9 °F 23.5 °F 28.0 °F 89% 29.84 in 10.0 mi WNW 8.1 mph - N/A   Clear
4:53 AM 32.0 °F 26.4 °F 28.9 °F 88% 29.83 in 10.0 mi NW 5.8 mph - N/A   Clear
5:53 AM 32.0 °F 25.6 °F 28.9 °F 88% 29.81 in 10.0 mi NW 6.9 mph - N/A   Clear
6:05 AM 32.0 °F 25.6 °F 28.9 °F 88% 29.80 in 10.0 mi NW 6.9 mph - N/A   Clear
6:53 AM 33.8 °F 26.4 °F 30.2 °F 87% 29.79 in 10.0 mi NNW 9.2 mph - N/A   Clear
7:53 AM 34.0 °F 26.0 °F 28.9 °F 82% 29.76 in 10.0 mi NW 10.4 mph - N/A   Clear
8:53 AM 37.4 °F 32.1 °F 26.6 °F 65% 29.74 in 10.0 mi WNW 6.9 mph - N/A   Clear
9:53 AM 37.9 °F 31.5 °F 26.1 °F 62% 29.73 in 10.0 mi WNW 9.2 mph - N/A   Clear
10:53 AM 39.9 °F 34.5 °F 27.0 °F 60% 29.71 in 10.0 mi NW 8.1 mph - N/A   Scattered Clouds
11:53 AM 42.8 °F 38.6 °F 26.6 °F 53% 29.70 in 10.0 mi NW 6.9 mph - N/A   Overcast
12:53 PM 42.8 °F 38.0 °F 26.6 °F 53% 29.70 in 10.0 mi NNW 8.1 mph - N/A   Mostly Cloudy
1:53 PM 43.0 °F 38.2 °F 25.0 °F 49% 29.68 in 10.0 mi NNW 8.1 mph - N/A   Mostly Cloudy
2:53 PM 44.1 °F 39.5 °F 26.1 °F 49% 29.66 in 10.0 mi NNW 8.1 mph - N/A   Mostly Cloudy
3:53 PM 45.0 °F 39.7 °F 27.0 °F 49% 29.65 in 10.0 mi NNW 10.4 mph - N/A   Scattered Clouds
4:53 PM 45.0 °F 40.1 °F 27.0 °F 49% 29.63 in 10.0 mi NNW 9.2 mph - N/A   Partly Cloudy
5:53 PM 42.1 °F 37.1 °F 26.1 °F 53% 29.61 in 10.0 mi NW 8.1 mph - N/A   Partly Cloudy
6:53 PM 42.1 °F 36.6 °F 28.9 °F 60% 29.60 in 10.0 mi NNW 9.2 mph - N/A   Mostly Cloudy
7:53 PM 39.9 °F 35.1 °F 28.9 °F 65% 29.57 in 10.0 mi NW 6.9 mph - N/A   Mostly Cloudy
8:53 PM 39.0 °F 34.0 °F 30.9 °F 73% 29.56 in 10.0 mi NW 6.9 mph - N/A   Overcast
9:53 PM 39.0 °F 32.3 °F 30.9 °F 73% 29.53 in 10.0 mi NNW 10.4 mph - N/A   Overcast
10:53 PM 39.9 °F 37.8 °F 34.0 °F 79% 29.55 in 10.0 mi South 3.5 mph - 0.01 in Rain Light Rain
11:53 PM 39.0 °F 36.8 °F 34.0 °F 82% 29.54 in 10.0 mi ESE 3.5 mph - 0.00 in   Overcast